W7KKE-3 Weather Reports


Display with metric or nautical units.
time (UTC)temp
F
wind
direction
speed
MPH
gust
MPH
rain 1hr
in
rain 24hr
in
rain mn
in
humidity
%
barometer
mb
20150306035844 50 0 0.0 0.0 0.00 0.00 0.00 80 1027.9
20150306035344 50 0 0.0 0.0 0.00 0.00 0.00 80 1027.8
20150306034844 50 0 0.0 0.0 0.00 0.00 0.00 80 1027.7
20150306034344 51 0 0.0 0.0 0.00 0.00 0.00 80 1027.7
20150306033844 51 0 0.0 0.0 0.00 0.00 0.00 80 1027.6
20150306033344 51 0 0.0 0.0 0.00 0.00 0.00 79 1027.6
20150306032844 51 0 0.0 0.0 0.00 0.00 0.00 79 1027.7
20150306032344 51 0 0.0 0.0 0.00 0.00 0.00 79 1027.7
20150306031844 51 0 0.0 0.0 0.00 0.00 0.00 78 1027.7
20150306031344 51 0 0.0 0.0 0.00 0.00 0.00 78 1027.9
20150306030844 52 0 0.0 0.0 0.00 0.00 0.00 78 1028.0
20150306030344 52 0 0.0 0.0 0.00 0.00 0.00 77 1028.1
20150306024344 52 0 0.0 0.0 0.00 0.00 0.00 76 1028.7
20150306023844 53 0 0.0 0.0 0.00 0.00 0.00 76 1028.7
20150306023344 53 0 0.0 0.0 0.00 0.00 0.00 76 1028.5
20150306022844 53 0 0.0 0.0 0.00 0.00 0.00 75 1028.3
20150306022344 53 0 0.0 0.0 0.00 0.00 0.00 75 1028.1
20150306021844 53 0 0.0 0.0 0.00 0.00 0.00 74 1027.9
20150306021344 54 0 0.0 0.0 0.00 0.00 0.00 74 1027.8
20150306020844 54 0 0.0 0.0 0.00 0.00 0.00 74 1027.6
20150306020344 54 0 0.0 0.0 0.00 0.00 0.00 74 1027.5
20150306015844 54 0 0.0 0.0 0.00 0.00 0.00 74 1027.3
20150306015344 55 0 0.0 0.0 0.00 0.00 0.00 73 1027.3
20150306014843 55 0 0.0 2.0 0.00 0.00 0.00 73 1027.2
20150306014344 55 0 0.0 2.0 0.00 0.00 0.00 72 1027.1
20150306013844 55 310 0.0 2.0 0.00 0.00 0.00 72 1027.1
20150306013344 55 327 0.0 9.0 0.00 0.00 0.00 72 1026.9
20150306012844 55 329 2.0 9.0 0.00 0.00 0.00 71 1026.9
20150306012344 55 309 4.0 9.0 0.00 0.00 0.00 71 1026.9
20150306011845 55 331 7.0 11.0 0.00 0.00 0.00 71 1026.9
20150306011344 56 299 7.0 11.0 0.00 0.00 0.00 71 1026.9
20150306010843 56 305 5.0 11.0 0.00 0.00 0.00 69 1026.9
20150306010343 56 327 7.0 10.0 0.00 0.00 0.00 69 1026.7
20150306005843 56 313 7.0 10.0 0.00 0.00 0.00 69 1026.8
20150306005343 57 324 7.0 10.0 0.00 0.00 0.00 68 1026.8
20150306004843 57 323 6.0 10.0 0.00 0.00 0.00 69 1026.8
20150306004343 57 299 5.0 10.0 0.00 0.00 0.00 70 1026.8
20150306003843 57 309 6.0 9.0 0.00 0.00 0.00 72 1026.8
20150306003343 57 309 5.0 9.0 0.00 0.00 0.00 72 1026.7
20150306002843 57 322 6.0 13.0 0.00 0.00 0.00 72 1026.7
20150306002343 57 313 7.0 13.0 0.00 0.00 0.00 72 1026.7
20150306001843 57 287 7.0 13.0 0.00 0.00 0.00 71 1026.8
20150306001343 57 319 9.0 11.0 0.00 0.00 0.00 70 1026.7
20150306000843 58 326 8.0 13.0 0.00 0.00 0.00 69 1026.7
20150306000343 58 330 7.0 13.0 0.00 0.00 0.00 69 1026.7
20150305235843 58 306 10.0 13.0 0.00 0.00 0.00 68 1026.7
20150305235343 58 326 7.0 12.0 0.00 0.00 0.00 67 1026.7
20150305234843 58 303 7.0 13.0 0.00 0.00 0.00 67 1026.6
20150305234343 57 301 7.0 13.0 0.00 0.00 0.00 67 1026.6
20150305233843 57 323 7.0 13.0 0.00 0.00 0.00 67 1026.7
20150305233343 57 313 8.0 12.0 0.00 0.00 0.00 66 1026.7
20150305232843 57 298 8.0 13.0 0.00 0.00 0.00 66 1026.8
20150305232343 58 327 8.0 13.0 0.00 0.00 0.00 66 1026.8
20150305231843 58 317 7.0 13.0 0.00 0.00 0.00 67 1026.8
20150305231343 58 315 7.0 12.0 0.00 0.00 0.00 66 1026.8
20150305230843 58 327 7.0 12.0 0.00 0.00 0.00 66 1026.8
20150305230343 59 329 8.0 12.0 0.00 0.00 0.00 65 1026.8
20150305225843 59 323 8.0 11.0 0.00 0.00 0.00 64 1026.8
20150305225343 59 323 6.0 10.0 0.00 0.00 0.00 63 1026.9
20150305224843 59 313 6.0 10.0 0.00 0.00 0.00 63 1026.9
20150305224344 60 310 5.0 10.0 0.00 0.00 0.00 62 1026.9
20150305223843 60 294 6.0 9.0 0.00 0.00 0.00 62 1027.1
20150305223343 60 301 5.0 10.0 0.00 0.00 0.00 60 1027.1
20150305222843 60 313 6.0 10.0 0.00 0.00 0.00 59 1027.1
20150305222343 60 294 6.0 10.0 0.00 0.00 0.00 59 1027.2
20150305221843 60 303 6.0 10.0 0.00 0.00 0.00 59 1027.1
20150305221343 60 326 5.0 10.0 0.00 0.00 0.00 59 1027.2
20150305220843 60 294 7.0 13.0 0.00 0.00 0.00 60 1027.2
20150305220343 59 330 8.0 13.0 0.00 0.00 0.00 61 1027.2
20150305215844 59 327 7.0 13.0 0.00 0.00 0.00 62 1027.3
20150305215345 59 317 7.0 14.0 0.00 0.00 0.00 61 1027.4
20150305214343 59 326 7.0 14.0 0.00 0.00 0.00 62 1027.4
20150305213843 59 327 9.0 13.0 0.00 0.00 0.00 63 1027.5
20150305213343 59 327 7.0 12.0 0.00 0.00 0.00 63 1027.4
20150305212843 59 303 9.0 14.0 0.00 0.00 0.00 63 1027.5
20150305212343 59 309 9.0 14.0 0.00 0.00 0.00 63 1027.6
20150305211843 59 315 9.0 14.0 0.00 0.00 0.00 62 1027.6
20150305211343 59 312 9.0 14.0 0.00 0.00 0.00 61 1027.7
20150305210843 59 327 9.0 13.0 0.00 0.00 0.00 61 1027.6
20150305210343 60 312 9.0 13.0 0.00 0.00 0.00 61 1027.6
20150305205843 60 316 8.0 13.0 0.00 0.00 0.00 60 1027.7
20150305205344 60 310 8.0 12.0 0.00 0.00 0.00 60 1027.8
20150305204843 60 313 8.0 11.0 0.00 0.00 0.00 60 1027.9
20150305204343 60 320 9.0 10.0 0.00 0.00 0.00 58 1028.0
20150305203843 60 329 8.0 10.0 0.00 0.00 0.00 58 1028.0
20150305203346 60 309 7.0 10.0 0.00 0.00 0.00 59 1028.0
20150305202843 60 327 8.0 10.0 0.00 0.00 0.00 60 1028.0
20150305202344 60 326 7.0 10.0 0.00 0.00 0.00 59 1028.1
20150305201843 61 295 6.0 10.0 0.00 0.00 0.00 57 1028.0
20150305201343 61 319 5.0 9.0 0.00 0.00 0.00 57 1028.1
20150305200844 61 285 6.0 8.0 0.00 0.00 0.00 59 1028.2
20150305200343 61 319 4.0 7.0 0.00 0.00 0.00 60 1028.2
20150305195843 61 305 5.0 7.0 0.00 0.00 0.00 59 1028.2
20150305195343 61 281 2.0 7.0 0.00 0.00 0.00 59 1028.2
20150305194843 61 296 3.0 7.0 0.00 0.00 0.00 60 1028.2
20150305194343 61 253 5.0 7.0 0.00 0.00 0.00 60 1028.2
20150305193844 61 295 5.0 7.0 0.00 0.00 0.00 61 1028.2
20150305192343 61 298 3.0 7.0 0.00 0.00 0.00 61 1028.2
20150305191844 61 306 4.0 8.0 0.00 0.00 0.00 61 1028.1
20150305191343 60 298 5.0 8.0 0.00 0.00 0.00 61 1028.1
20150305185344 61 319 5.0 9.0 0.00 0.00 0.00 60 1028.2
20150305184843 61 312 7.0 8.0 0.00 0.00 0.00 59 1028.2
20150305184343 61 299 6.0 8.0 0.00 0.00 0.00 58 1028.2
20150305183843 61 294 6.0 6.0 0.00 0.00 0.00 59 1028.2
20150305183343 60 310 5.0 6.0 0.00 0.00 0.00 58 1028.1
20150305182843 60 289 2.0 6.0 0.00 0.00 0.00 58 1028.2
20150305182343 59 295 2.0 5.0 0.00 0.00 0.00 60 1028.2
20150305181843 58 285 3.0 6.0 0.00 0.00 0.00 61 1028.3
20150305181343 58 303 3.0 6.0 0.00 0.00 0.00 63 1028.3
20150305180843 57 301 1.0 6.0 0.00 0.00 0.00 63 1028.4
20150305180343 56 124 3.0 6.0 0.00 0.00 0.00 64 1028.4
20150305174843 54 0 2.0 2.0 0.00 0.00 0.00 68 1028.4
20150305174343 54 0 0.0 0.0 0.00 0.00 0.00 68 1028.4
20150305173844 53 0 0.0 0.0 0.00 0.00 0.00 67 1028.4
20150305173343 52 0 0.0 0.0 0.00 0.00 0.00 69 1028.4
20150305171843 50 0 0.0 0.0 0.00 0.00 0.00 74 1028.3
20150305171343 50 43 0.0 6.0 0.00 0.00 0.00 75 1028.3
20150305170843 49 93 0.0 6.0 0.00 0.00 0.00 75 1028.3
20150305170343 48 96 1.0 6.0 0.00 0.00 0.00 74 1028.3
20150305165843 47 113 1.0 6.0 0.00 0.00 0.00 75 1028.3
20150305165343 47 88 0.0 5.0 0.00 0.00 0.00 77 1028.3
20150305164843 46 51 0.0 7.0 0.00 0.00 0.00 78 1028.2
20150305164343 46 71 0.0 7.0 0.00 0.00 0.00 79 1028.2
20150305163844 45 16 0.0 7.0 0.00 0.00 0.00 78 1028.2
20150305163343 45 95 1.0 7.0 0.00 0.00 0.00 79 1028.1
20150305161343 43 107 1.0 8.0 0.00 0.00 0.00 80 1028.1
20150305160843 43 0 0.0 0.0 0.00 0.00 0.00 80 1028.2
20150305160343 43 0 0.0 0.0 0.00 0.00 0.00 81 1028.1
20150305155843 42 0 0.0 0.0 0.00 0.00 0.00 81 1028.0
20150305155343 42 0 0.0 0.0 0.00 0.00 0.00 81 1027.9
20150305154843 42 0 0.0 0.0 0.00 0.00 0.00 81 1027.8
20150305154343 42 0 0.0 0.0 0.00 0.00 0.00 81 1027.7
20150305153843 42 0 0.0 0.0 0.00 0.00 0.00 81 1027.7
20150305153343 41 0 0.0 0.0 0.00 0.00 0.00 82 1027.7
20150305152843 41 0 0.0 0.0 0.00 0.00 0.00 82 1027.6
20150305152343 41 0 0.0 5.0 0.00 0.00 0.00 82 1027.7
20150305151843 41 0 0.0 5.0 0.00 0.00 0.00 82 1027.6
20150305151343 41 85 0.0 5.0 0.00 0.00 0.00 82 1027.4
20150305150843 41 71 0.0 5.0 0.00 0.00 0.00 82 1027.4
20150305150343 41 110 0.0 5.0 0.00 0.00 0.00 82 1027.3
20150305145843 41 117 2.0 5.0 0.00 0.00 0.00 82 1027.2
20150305145343 41 63 0.0 5.0 0.00 0.00 0.00 82 1027.2
20150305143343 41 119 2.0 5.0 0.00 0.00 0.00 83 1026.9
20150305142843 41 91 2.0 5.0 0.00 0.00 0.00 83 1026.9
20150305142343 41 103 2.0 5.0 0.00 0.00 0.00 82 1026.9
20150305141843 41 95 0.0 5.0 0.00 0.00 0.00 82 1026.9
20150305141343 41 70 0.0 5.0 0.00 0.00 0.00 83 1026.9
20150305140844 41 60 0.0 5.0 0.00 0.00 0.00 83 1026.9
20150305140343 41 43 0.0 5.0 0.00 0.00 0.00 83 1026.8
20150305135843 41 0 0.0 1.0 0.00 0.00 0.00 83 1026.7
20150305135343 41 0 0.0 0.0 0.00 0.00 0.00 83 1026.7
20150305134843 41 0 0.0 0.0 0.00 0.00 0.00 83 1026.7
20150305134343 41 0 0.0 0.0 0.00 0.00 0.00 83 1026.7
20150305133843 41 0 0.0 0.0 0.00 0.00 0.00 83 1026.6
20150305133343 41 0 0.0 0.0 0.00 0.00 0.00 83 1026.6
20150305132843 41 0 0.0 3.0 0.00 0.00 0.00 83 1026.5
20150305132343 41 63 0.0 3.0 0.00 0.00 0.00 83 1026.5
20150305131843 41 57 0.0 3.0 0.00 0.00 0.00 83 1026.5
20150305131343 41 42 0.0 5.0 0.00 0.00 0.00 83 1026.4
20150305125343 41 0 0.0 0.0 0.00 0.00 0.00 84 1026.3
20150305124843 41 0 0.0 0.0 0.00 0.00 0.00 84 1026.2
20150305124343 41 0 0.0 0.0 0.00 0.00 0.00 84 1026.1
20150305123843 41 0 0.0 0.0 0.00 0.00 0.00 84 1026.1
20150305123343 41 0 0.0 0.0 0.00 0.00 0.00 84 1026.0
20150305122843 41 0 0.0 0.0 0.00 0.00 0.00 85 1026.0
20150305122343 41 0 0.0 0.0 0.00 0.00 0.00 85 1026.0
20150305121843 41 0 0.0 5.0 0.00 0.00 0.00 85 1025.9
20150305121343 41 0 0.0 5.0 0.00 0.00 0.00 85 1025.9
20150305120843 41 100 0.0 5.0 0.00 0.00 0.00 85 1025.9
20150305120343 41 106 0.0 5.0 0.00 0.00 0.00 85 1025.8
20150305115843 41 89 1.0 3.0 0.00 0.00 0.00 85 1025.8
20150305115343 41 67 1.0 5.0 0.00 0.00 0.00 85 1025.8
20150305114843 41 98 0.0 5.0 0.00 0.00 0.00 85 1025.8
20150305114343 41 28 0.0 5.0 0.00 0.00 0.00 85 1025.7
20150305113843 41 78 1.0 4.0 0.00 0.00 0.00 85 1025.8
20150305113343 41 75 1.0 4.0 0.00 0.00 0.00 85 1025.8
20150305112843 41 77 2.0 5.0 0.00 0.00 0.00 84 1025.8
20150305112343 41 54 0.0 5.0 0.00 0.00 0.00 84 1025.9
20150305111843 41 102 0.0 5.0 0.00 0.00 0.00 85 1025.9
20150305111343 41 67 0.0 7.0 0.00 0.00 0.00 85 1025.8
20150305110843 41 92 1.0 7.0 0.00 0.00 0.00 84 1025.9
20150305110343 41 112 0.0 7.0 0.00 0.00 0.00 84 1025.9
20150305105843 41 357 2.0 6.0 0.00 0.00 0.00 84 1026.0
20150305105343 41 117 2.0 6.0 0.00 0.00 0.00 84 1026.0
20150305104843 41 75 0.0 6.0 0.00 0.00 0.00 85 1026.0
20150305104343 41 119 0.0 6.0 0.00 0.00 0.00 85 1026.0
20150305103843 41 50 3.0 5.0 0.00 0.00 0.00 85 1026.0
20150305103343 41 58 2.0 5.0 0.00 0.00 0.00 85 1025.9
20150305102843 41 103 1.0 5.0 0.00 0.00 0.00 84 1026.0
20150305102343 41 68 2.0 5.0 0.00 0.00 0.00 84 1026.0
20150305101843 41 53 0.0 5.0 0.00 0.00 0.00 84 1026.1
20150305101343 42 77 0.0 5.0 0.00 0.00 0.00 83 1026.0
20150305100843 42 124 2.0 4.0 0.00 0.00 0.00 83 1026.1
20150305100343 42 86 0.0 7.0 0.00 0.00 0.00 83 1026.0
20150305095843 42 78 0.0 7.0 0.00 0.00 0.00 83 1026.1
20150305095343 42 95 2.0 7.0 0.00 0.00 0.00 83 1026.0
20150305094843 42 89 1.0 6.0 0.00 0.00 0.00 83 1026.0
20150305093843 42 116 2.0 6.0 0.00 0.00 0.00 83 1025.8
20150305093343 42 81 2.0 6.0 0.00 0.00 0.00 83 1025.8
20150305092843 42 74 3.0 5.0 0.00 0.00 0.00 83 1025.8
20150305092343 42 14 2.0 3.0 0.00 0.00 0.00 83 1025.8
20150305091843 42 12 0.0 3.0 0.00 0.00 0.00 82 1025.7
20150305091343 42 0 0.0 5.0 0.00 0.00 0.00 82 1025.7
20150305090843 42 119 0.0 5.0 0.00 0.00 0.00 82 1025.7
20150305090343 42 23 0.0 5.0 0.00 0.00 0.00 82 1025.7
20150305085843 43 36 1.0 5.0 0.00 0.00 0.00 82 1025.6
20150305085343 43 0 0.0 3.0 0.00 0.00 0.00 82 1025.6
20150305084843 42 0 0.0 5.0 0.00 0.00 0.00 82 1025.6
20150305084343 42 0 0.0 5.0 0.00 0.00 0.00 82 1025.5
20150305083843 43 82 0.0 5.0 0.00 0.00 0.00 82 1025.5
20150305083343 43 123 1.0 6.0 0.00 0.00 0.00 82 1025.4
20150305082843 42 77 2.0 6.0 0.00 0.00 0.00 82 1025.5
20150305082343 42 100 1.0 6.0 0.00 0.00 0.00 82 1025.5
20150305081843 42 112 2.0 6.0 0.00 0.00 0.00 82 1025.4
20150305075843 43 0 3.0 3.0 0.00 0.00 0.00 82 1025.5
20150305075343 43 68 0.0 7.0 0.00 0.00 0.00 82 1025.6
20150305074843 43 75 1.0 7.0 0.00 0.00 0.00 82 1025.6
20150305074343 43 103 3.0 7.0 0.00 0.00 0.00 82 1025.6
20150305073843 43 103 5.0 6.0 0.00 0.00 0.00 82 1025.6
20150305073343 43 84 5.0 5.0 0.00 0.00 0.00 81 1025.6
20150305072843 43 88 4.0 5.0 0.00 0.00 0.00 81 1025.6
20150305072343 43 61 2.0 4.0 0.00 0.00 0.00 81 1025.5
20150305071843 44 60 0.0 5.0 0.00 0.00 0.00 81 1025.5
20150305071343 44 54 0.0 5.0 0.00 0.00 0.00 81 1025.5
20150305070843 44 70 0.0 5.0 0.00 0.00 0.00 80 1025.5
20150305070343 44 29 0.0 5.0 0.00 0.00 0.00 80 1025.5
20150305065843 44 0 0.0 5.0 0.00 0.00 0.00 80 1025.4
20150305065343 44 107 0.0 5.0 0.00 0.00 0.00 80 1025.3
20150305064843 44 12 0.0 4.0 0.00 0.00 0.00 80 1025.3
20150305064343 44 68 1.0 4.0 0.00 0.00 0.00 80 1025.3
20150305063844 44 124 2.0 9.0 0.00 0.00 0.00 80 1025.2
20150305062343 44 82 3.0 7.0 0.00 0.00 0.00 80 1025.3
20150305061843 44 103 4.0 7.0 0.00 0.00 0.00 80 1025.3
20150305055843 44 77 3.0 7.0 0.00 0.00 0.00 80 1025.2
20150305055343 44 93 2.0 7.0 0.00 0.00 0.00 80 1025.3
20150305054843 45 75 2.0 6.0 0.00 0.00 0.00 80 1025.3
20150305054343 45 63 3.0 5.0 0.00 0.00 0.00 80 1025.3
20150305053843 45 78 3.0 5.0 0.00 0.00 0.00 79 1025.3
20150305053343 45 86 2.0 5.0 0.00 0.00 0.00 79 1025.2
20150305052843 45 102 1.0 5.0 0.00 0.00 0.00 79 1025.3
20150305052344 45 93 2.0 5.0 0.00 0.00 0.00 78 1025.4
20150305051843 46 33 2.0 5.0 0.00 0.00 0.00 78 1025.5
20150305051343 46 98 0.0 5.0 0.00 0.00 0.00 78 1025.6
20150305045343 46 0 0.0 0.0 0.00 0.00 0.00 78 1025.9
20150305044842 46 0 0.0 0.0 0.00 0.00 0.00 78 1025.7
20150305044343 46 0 0.0 0.0 0.00 0.00 0.00 78 1025.7
20150305042343 46 0 0.0 0.0 0.00 0.00 0.00 78 1025.3
20150305041842 46 0 0.0 2.0 0.00 0.00 0.00 77 1025.3
20150305041343 46 0 0.0 2.0 0.00 0.00 0.00 77 1025.3
20150305040842 46 39 0.0 2.0 0.00 0.00 0.00 77 1025.3
20150305040342 46 0 0.0 0.0 0.00 0.00 0.00 76 1025.4